User: anonymous   Login
Location: Gisborne
(38.6530°S, 178.0040°E)
Time: 01:27:07
(UTC+13:00)
Language:

Cosmos 2263 Rocket - Orbit

View from above orbital plane
View from above orbital plane
View from above satellite
View from above satellite

Ground track
Ground track

The orbit data is extracted from the following two-line orbital elements,

1 22803U 93059B   19083.89108695 -.00000256 +00000-0 -10369-3 0  9995
2 22803 070.9916 328.7642 0015352 127.1559 233.0969 14.16806030319483
Epoch (UTC): 24 March 2019 21:23:09
Eccentricity: 0.0015352
inclination: 70.9916°
perigee height: 825 km
apogee height: 847 km
right ascension of ascending node: 328.7642°
argument of perigee: 127.1559°
revolutions per day: 14.16806030
mean anomaly at epoch: 233.0969°
orbit number at epoch: 31948

The dashed part of the orbit path shows where the satellite is in the earth's shadow,  

DLR